Погода в Дохновичах

Россия / Брянская область     52°31′16″N   32°53′35″E
темп.,
°C
ветер,
м/с
пор.,
м/с
влажн.,
%
обл.,
%
осадки,
мм/ч
давл.,
гПа
погр.,
м
11 мая, вт
вт1100:00+6ссв47800 0.0 102593
03:00+5ссв49785 0.0 1025162
06:00+6ссв411795 0.0 1024233
09:00+12ссв69705 0.0 1023391
12:00+17св69635 0.0 1022734
15:00+19св79605 0.0 10201261
18:00+17всв7117463 0.3 1021921
21:00+10вюв3109297 0.4 1022354
12 мая, ср
ср1200:00+7всв411951 0.0 1023260
03:00+6в5129410 0.0 1023524
06:00+6всв49925 0.0 1024303
09:00+11в69746 0.0 1023766
12:00+14в686098 0.1 10211679
15:00+14в6663100 1.1 10191202
18:00+9юв3593100 2.4 1017274
21:00+8вюв1294100 3.4 101566
13 мая, чт
чт1300:00+7в3496100 0.0 101491
03:00+8юв489694 0.1 1014373
06:00+8юв5791100 0.0 1014460
09:00+10юв688142 0.0 1015752
12:00+14ююв686089 0.1 10141734
15:00+16ююв685353 0.1 10131883
18:00+16ююв476451 0.0 10131050
21:00+10юв458355 0.1 101367
14 мая, пт
пт1400:00+9вюв3585100 0.0 101377
03:00+9вюв3787100 0.0 1012120
06:00+10в41095100 0.0 1012225
09:00+14в589493 0.6 1011309
12:00+20ююв686924 0.3 10101316
15:00+21ю586019 1.4 10091808
18:00+19ююз3775100 0.5 1009405
21:00+15ююз228797 0.6 101012
15 мая, сб
сб1500:00+13юв1189100 0.0 101010
03:00+12вюв229194 0.0 100911
06:00+13юв1191100 0.0 100910
09:00+16юв1182100 0.3 1008301
12:00+19ююз3471100 1.9 1008759
15:00+17з4578100 3.5 1008570
18:00+17з4679100 0.3 1009865
21:00+13зюз4994100 0.5 1010296